This demonstration page uses our WeatherBlox Daily Observations layout. Learn more.

Left ArrowRight Arrow

Hourly Observations for October 14, 2016

Temp ( °F °C ) Dew Point ( °F °C ) Humidity (%) Winds ( mph kmh ) Pressure ( in mb ) Visibility ( mi km ) Precip ( " mm )
12:51 am 00:51 Clear 54 12.2 39 3.9 57 57 Calm 29.96 1015 10 16 0.00 0.00
1:51 am 01:51 Clear 52 11.1 42 5.6 69 69 S 3 6 29.96 1015 10 16 0.00 0.00
2:51 am 02:51 Clear 52 11.1 40 4.4 64 64 NNE 3 6 29.96 1015 10 16 0.00 0.00
3:51 am 03:51 Clear 52 11.1 39 3.9 61 61 Calm 29.97 1015 10 16 0.00 0.00
4:51 am 04:51 Clear 50 10 41 5 71 71 SE 3 6 29.98 1015 10 16 0.00 0.00
5:51 am 05:51 Clear 50 10 38 3.3 63 63 S 3 6 30.00 1016 10 16 0.00 0.00
6:51 am 06:51 Sunny 50 10 39 3.9 66 66 Calm 30.02 1017 10 16 0.00 0.00
7:51 am 07:51 Sunny 63 17.2 36 2.2 37 37 SE 10 17 30.02 1017 10 16 0.00 0.00
8:51 am 08:51 Sunny 69 20.6 35 1.7 29 29 SSE 13 20 30.02 1017 10 16 0.00 0.00
9:51 am 09:51 Sunny 74 23.3 33 0.6 22 22 SE 12 19 30.01 1016 10 16 0.00 0.00
10:51 am 10:51 Sunny 78 25.6 35 1.7 21 21 SSE 5 7 29.98 1015 10 16 0.00 0.00
11:51 am 11:51 Sunny 80 26.7 33 0.6 18 18 VRB 3 6 29.97 1015 10 16 0.00 0.00
12:51 pm 12:51 Sunny 83 28.3 29 -1.7 14 14 Calm 29.93 1014 10 16 0.00 0.00
1:51 pm 13:51 Sunny 86 30 31 -0.6 14 14 VRB 5 7 29.90 1013 10 16 0.00 0.00
2:51 pm 14:51 Sunny 87 30.6 31 -0.6 13 13 SSW 3 6 29.87 1012 10 16 0.00 0.00
3:51 pm 15:51 Sunny 86 30 31 -0.6 14 14 SW 3 6 29.86 1011 10 16 0.00 0.00
4:51 pm 16:51 Sunny 84 28.9 36 2.2 18 18 WSW 7 11 29.87 1011 10 16 0.00 0.00
5:51 pm 17:51 Clear 80 26.7 39 3.9 23 23 W 5 7 29.87 1012 10 16 0.00 0.00
6:51 pm 18:51 Clear 70 21.1 46 7.8 42 42 N 5 7 29.90 1012 10 16 0.00 0.00
7:51 pm 19:51 Clear with Light Rain 66 18.9 44 6.7 45 45 N 3 6 29.89 1012 10 16 0.00 0.03
8:51 pm 20:51 Clear 64 17.8 44 6.7 48 48 ESE 7 11 29.89 1012 10 16 0.00 0.03
9:51 pm 21:51 Clear with Light Rain 61 16.1 43 6.1 52 52 E 5 7 29.89 1012 10 16 0.00 0.03
10:51 pm 22:51 Clear 62 16.7 43 6.1 50 50 Calm 29.89 1012 10 16 0.00 0.03
11:51 pm 23:51 Clear 58 14.4 42 5.6 56 56 Calm 29.89 1012 10 16 0.00 0.00

Powered by AerisWeather